Race Analysis

 :: S58

Ver o tópico anterior Ver o tópico seguinte Ir em baixo

Race Analysis

Mensagem por Paulo Coutinho em Seg Abr 17, 2017 12:34 pm

Sakhir (Bahrain), Season 58


Lap Lap time Pos Tyres Weather Temp (°) Hum (%) Events
0 - 1 Extra Soft Very Cloudy 11 25 -
1 1:35.928 6 Extra Soft Very Cloudy 11 25 -
2 1:30.711 6 Extra Soft Very Cloudy 11 25 -
3 1:30.819 6 Extra Soft Very Cloudy 11 25 -
4 1:30.774 6 Extra Soft Very Cloudy 11 25 -
5 1:30.606 6 Extra Soft Very Cloudy 11 25 -
6 1:30.480 6 Extra Soft Very Cloudy 11 24 -
7 1:30.354 6 Extra Soft Cloudy 11 23 -
8 1:30.081 6 Extra Soft Cloudy 11 23 -
9 1:30.149 6 Extra Soft Cloudy 11 23 -
10 1:30.026 6 Extra Soft Cloudy 11 23 -
11 1:30.828 6 Extra Soft Cloudy 11 23 -
12 1:30.552 6 Extra Soft Cloudy 11 23 -
13 1:29.846 6 Extra Soft Cloudy 11 23 -
14 1:29.683 5 Extra Soft Cloudy 11 23 -
15 1:29.998 4 Extra Soft Cloudy 11 23 -
16 1:30.013 3 Extra Soft Cloudy 11 23 -
17 1:30.160 3 Extra Soft Cloudy 11 23 -
18 1:29.960 3 Extra Soft Cloudy 11 23 -
19 1:43.118 6 Extra Soft Cloudy 11 23 Pit
20 2:05.224 12 Extra Soft Cloudy 11 23 -
21 1:32.920 10 Extra Soft Cloudy 11 23 Car problem
22 1:33.185 10 Extra Soft Cloudy 11 23 Car problem
23 1:33.147 10 Extra Soft Cloudy 11 23 Car problem
24 1:33.287 11 Extra Soft Cloudy 11 23 Car problem
25 1:33.215 10 Extra Soft Cloudy 11 23 Car problem
26 1:33.158 10 Extra Soft Cloudy 11 23 Car problem
27 1:33.032 10 Extra Soft Cloudy 11 23 Car problem
28 1:33.080 12 Extra Soft Cloudy 11 22 Car problem
29 1:33.004 11 Extra Soft Cloudy 11 22 Car problem
30 1:32.997 11 Extra Soft Cloudy 11 22 Car problem
31 1:32.395 12 Extra Soft Cloudy 11 22 Car problem
32 1:33.106 13 Extra Soft Cloudy 11 22 Car problem
33 1:32.446 13 Extra Soft Cloudy 11 22 Car problem
34 1:33.006 15 Extra Soft Cloudy 11 22 Car problem
35 1:32.862 15 Extra Soft Cloudy 11 22 Car problem
36 1:33.044 14 Extra Soft Cloudy 11 22 Car problem
37 1:33.330 14 Extra Soft Cloudy 11 22 Car problem
38 1:33.855 13 Extra Soft Cloudy 11 22 Car problem
39 1:47.309 13 Extra Soft Cloudy 12 22 Car problem, Pit
40 2:07.067 22 Extra Soft Cloudy 12 22 Car problem
41 1:36.446 22 Extra Soft Cloudy 13 22 Driver mistake, Car problem
42 1:33.614 22 Extra Soft Cloudy 13 22 Car problem
43 1:33.702 22 Extra Soft Cloudy 13 22 Car problem
44 1:33.660 22 Extra Soft Cloudy 13 22 Car problem
45 1:33.785 22 Extra Soft Cloudy 13 22 Car problem
46 1:33.701 22 Extra Soft Cloudy 13 22 Car problem
47 1:33.256 23 Extra Soft Cloudy 13 22 Car problem
48 1:33.169 23 Extra Soft Cloudy 13 22 Car problem
49 1:33.225 24 Extra Soft Cloudy 13 22 Car problem
50 1:33.547 24 Extra Soft Cloudy 13 22 Car problem
51 1:33.304 24 Extra Soft Cloudy 13 22 Car problem
52 1:33.615 23 Extra Soft Cloudy 13 22 Car problem
53 1:33.166 23 Extra Soft Cloudy 13 22 Car problem
54 1:33.077 23 Extra Soft Cloudy 13 22 Car problem
55 1:33.140 23 Extra Soft Cloudy 13 22 Car problem
56 1:33.199 23 Extra Soft Cloudy 13 22 Car problem
57 1:33.768 25 Extra Soft Cloudy 13 22 Car problem


Risks used:
Overtake Defend Clear & dry Clear & wet Malfunct
0 0 0 0 0

Setup used:
Front wing Rear wing Engine Brakes Gear Suspension
162 322 545 597 522 539

Cha Eng FWing RWing Underb Sidep Cool Gear Bra Susp Elec
Car parts level: 5 4 6 6 7 7 6 5 6 6 7
Car parts wear (at the start) (%): 92 87 21 18 21 94 93 18 27 15 85
Car parts wear (at the finish) (%): 99 99 39 31 34 99 99 34 46 34 94

Start fuel (liters): 81

Pit Pitstop reason Tyres condition (%) Fuel left (%) Refilled to (liters) Pit time (sec)
Stop 1 (Lap 19): No more fuel was left 12 2 81 liters 21.530
Stop 2 (Lap 39): No more fuel was left 8 1 81 liters 20.625


Technical problems
Lap 21 The cooling of the car stopped functioning

Tyres condition after finish (%): 14

Fuel left in the car after finish (liters): 9

Driver energy
86% 80%

_________________
Paulo Coutinho
avatar
Paulo Coutinho

Mensagens : 1715
Data de inscrição : 31/03/2015
Idade : 44

Ver perfil do usuário

Voltar ao Topo Ir em baixo

Re: Race Analysis

Mensagem por hugueta em Seg Abr 17, 2017 9:33 pm

Race analysis: Sakhir (Bahrain) - Season 58 - Race 7

Practice laps data
Lap Lap time Driver mistake Net time Settings
FWing RWing Engine Brakes Gear Susp Tyres Comm
1 1:34.380s 0.160s 1:34.220s 84 202 432 746 716 377 Medium
2 1:33.630s 0.252s 1:33.378s 132 250 528 678 588 421 Medium
3 1:33.848s 0.475s 1:33.373s 111 281 528 678 588 421 Medium
Practice lap 3 comments from your driver:

I am satisfied with the setup of the car


Car wear & lap information
Car parts level
Cha Eng FWing RWing Underb Sidep Cool Gear Bra Susp Elec
4 4 4 4 4 4 4 4 4 4 4
Car parts wear (at the start)
20% 16% 23% 51% 23% 16% 20% 49% 63% 55% 84%
Car parts wear (at the finish)
39% 60% 46% 70% 41% 38% 45% 71% 88% 80% 97%
Lap Lap time Pos Tyres Weather Temp Hum Events
0 - 20 Medium Very Cloudy 11° 25% -
1 1:47.210 25 Medium Very Cloudy 11° 25% -
2 1:34.095 26 Medium Very Cloudy 11° 25% -
3 1:33.905 26 Medium Very Cloudy 11° 25% -
4 1:34.101 26 Medium Very Cloudy 11° 25% -
5 1:34.430 26 Medium Very Cloudy 11° 25% -
6 1:33.990 26 Medium Very Cloudy 11° 24% -
7 1:33.878 26 Medium Cloudy 11° 23% -
8 1:34.343 26 Medium Cloudy 11° 23% -
9 1:34.013 26 Medium Cloudy 11° 23% -
10 1:33.657 26 Medium Cloudy 11° 23% -
11 1:33.460 24 Medium Cloudy 11° 23% -
12 1:33.163 24 Medium Cloudy 11° 23% -
13 1:33.521 24 Medium Cloudy 11° 23% -
14 1:33.972 24 Medium Cloudy 11° 23% -
15 1:31.899 22 Medium Cloudy 11° 23% -
16 1:32.065 22 Medium Cloudy 11° 23% -
17 1:32.220 22 Medium Cloudy 11° 23% -
18 1:32.556 21 Medium Cloudy 11° 23% -
19 1:32.467 19 Medium Cloudy 11° 23% -
20 1:32.464 14 Medium Cloudy 11° 23% -
21 1:32.328 12 Medium Cloudy 11° 23% -
22 1:32.209 12 Medium Cloudy 11° 23% -
23 1:32.284 12 Medium Cloudy 11° 23% -
24 1:31.893 12 Medium Cloudy 11° 23% -
25 1:32.021 12 Medium Cloudy 11° 23% -
26 1:31.655 12 Medium Cloudy 11° 23% -
27 1:32.175 12 Medium Cloudy 11° 23% -
28 1:44.961 17 Medium Cloudy 11° 22% Pit
29 2:19.558 25 Medium Cloudy 11° 22% -
30 1:33.994 24 Medium Cloudy 11° 22% -
31 1:33.678 24 Medium Cloudy 11° 22% -
32 1:33.846 24 Medium Cloudy 11° 22% -
33 1:33.646 23 Medium Cloudy 11° 22% -
34 1:33.543 23 Medium Cloudy 11° 22% -
35 1:33.544 23 Medium Cloudy 11° 22% -
36 1:33.434 23 Medium Cloudy 11° 22% -
37 1:33.194 23 Medium Cloudy 11° 22% -
38 1:32.946 22 Medium Cloudy 11° 22% -
39 1:32.281 18 Medium Cloudy 12° 22% -
40 1:31.934 17 Medium Cloudy 12° 22% -
41 1:31.435 16 Medium Cloudy 13° 22% -
42 1:32.482 15 Medium Cloudy 13° 22% -
43 1:32.258 15 Medium Cloudy 13° 22% -
44 1:32.403 15 Medium Cloudy 13° 22% -
45 1:32.251 15 Medium Cloudy 13° 22% -
46 1:32.481 15 Medium Cloudy 13° 22% -
47 1:31.841 15 Medium Cloudy 13° 22% -
48 1:31.814 15 Medium Cloudy 13° 22% -
49 1:31.937 15 Medium Cloudy 13° 22% -
50 1:31.951 15 Medium Cloudy 13° 22% -
51 1:31.907 15 Medium Cloudy 13° 22% -
52 1:31.793 15 Medium Cloudy 13° 22% -
53 1:31.506 14 Medium Cloudy 13° 22% -
54 1:31.295 13 Medium Cloudy 13° 22% -
55 1:31.859 13 Medium Cloudy 13° 22% -
56 1:31.862 12 Medium Cloudy 13° 22% -
57 1:32.415 13 Medium Cloudy 13° 22% -

Download race analysis as Excel sheet

Race information
Lap times
Qualification 1 Qualification 2
1:33.525s 1:36.480s

Setups used
Session FWing RWing Eng Bra Gear Susp Tyres
Q1 111 281 528 678 588 421 Medium
Q2 221 281 521 690 580 409 Medium
Race 221 281 521 690 580 409 Medium

Risks used
Starting risk
Avoid trouble
Overtake Defend Clear & dry Clear & wet Malfunct
12 14 31 31 0

Driver attributes
Driver name OA Con Tal Agr Exp TeI Sta Cha Mot Rep Wei
Lorenzo Bertaggia 102 202 118 2 96 144 48 135 14 0 73
(0) (0) (0) (0) (+1) (0) (0) (0) (-3) (0) (0)

Driver energy
69% 8%

Positions
Start Finish
20 13
Overall car character
Power Handling Acceleration
54 54 53

Tyre supplier
Pipirelli Pipirelli
Peak temperature:
34°
Dry performance:

Wet performance:

Durability:

Warmup distance:


Sessions weather
Practice / Qualify 1 Qualify 2 / Race start
Cloudy
Temp: 9°C
Humidity: 22% Very cloudy
Temp: 11°C
Humidity: 25%
Race forecast
Start - 0h30m 0h30m - 1h
Temp: 9° - 13°
Humidity: 23% - 34%
Rain probability: 0% - 5% Temp: 8° - 12°
Humidity: 22% - 32%
Rain probability: 0%
1h - 1h30m 1h30m - 2h
Temp: 9° - 13°
Humidity: 22% - 31%
Rain probability: 20% - 30% Temp: 9° - 13°
Humidity: 21% - 28%
Rain probability: 15% - 25%


Start fuel: 121 liters

Pit Pitstop reason Tyres condition
Fuel left Refilled to Pit time
Stop 1
(Lap 28) No more fuel was left 16% 1% 126 liters 32.540s

Tyres condition after finish: 12%

Fuel left in the car after finish: 2 liters

hugueta

Mensagens : 486
Data de inscrição : 30/09/2014
Idade : 40
Localização : Lx

Ver perfil do usuário

Voltar ao Topo Ir em baixo

Re: Race Analysis

Mensagem por Gabriel Miranda em Ter Maio 23, 2017 11:36 am

Sakhir (Bahrain), Época 58


Volta Tempo volta Pos Pneus Tempo Temp (°) Hum (%) Ocorrências
0 - 23 Médios Muito nublado 11 25 -
1 1:45.558 25 Médios Muito nublado 11 25 -
2 1:32.955 26 Médios Muito nublado 11 25 -
3 1:33.011 26 Médios Muito nublado 11 25 -
4 1:32.830 26 Médios Muito nublado 11 25 -
5 1:33.105 27 Médios Muito nublado 11 25 -
6 1:33.114 27 Médios Muito nublado 11 24 -
7 1:32.559 27 Médios Nublado 11 23 -
8 1:33.007 27 Médios Nublado 11 23 -
9 1:32.575 27 Médios Nublado 11 23 -
10 1:32.441 27 Médios Nublado 11 23 -
11 1:32.854 28 Médios Nublado 11 23 -
12 1:32.426 28 Médios Nublado 11 23 -
13 1:32.838 28 Médios Nublado 11 23 -
14 1:32.705 28 Médios Nublado 11 23 -
15 1:32.002 26 Médios Nublado 11 23 -
16 1:32.473 26 Médios Nublado 11 23 -
17 1:32.050 25 Médios Nublado 11 23 -
18 1:32.557 25 Médios Nublado 11 23 -
19 1:31.773 21 Médios Nublado 11 23 -
20 1:32.158 11 Médios Nublado 11 23 -
21 1:38.602 13 Médios Nublado 11 23 Erro do Piloto
22 1:31.348 12 Médios Nublado 11 23 -
23 1:32.052 12 Médios Nublado 11 23 -
24 1:31.448 12 Médios Nublado 11 23 -
25 1:30.970 12 Médios Nublado 11 23 -
26 1:29.999 12 Médios Nublado 11 23 -
27 1:30.048 12 Médios Nublado 11 23 -
28 1:44.337 15 Médios Nublado 11 22 Pit
29 2:13.284 26 Médios Nublado 11 22 -
30 1:33.004 25 Médios Nublado 11 22 -
31 1:32.824 25 Médios Nublado 11 22 -
32 1:32.928 25 Médios Nublado 11 22 -
33 1:32.691 24 Médios Nublado 11 22 -
34 1:32.957 24 Médios Nublado 11 22 -
35 1:32.996 24 Médios Nublado 11 22 -
36 1:32.790 23 Médios Nublado 11 22 -
37 1:32.856 23 Médios Nublado 11 22 -
38 1:32.272 24 Médios Nublado 11 22 -
39 1:32.492 22 Médios Nublado 12 22 -
40 1:32.199 22 Médios Nublado 12 22 -
41 1:31.970 20 Médios Nublado 13 22 -
42 1:31.945 19 Médios Nublado 13 22 -
43 1:38.374 20 Médios Nublado 13 22 Erro do Piloto
44 1:32.266 20 Médios Nublado 13 22 -
45 1:31.857 20 Médios Nublado 13 22 -
46 1:32.107 20 Médios Nublado 13 22 -
47 1:31.558 20 Médios Nublado 13 22 -
48 1:32.031 17 Médios Nublado 13 22 -
49 1:31.543 17 Médios Nublado 13 22 -
50 1:30.292 17 Médios Nublado 13 22 -
51 1:30.235 17 Médios Nublado 13 22 -
52 1:30.239 17 Médios Nublado 13 22 -
53 1:29.801 17 Médios Nublado 13 22 -
54 1:30.377 17 Médios Nublado 13 22 -
55 1:30.032 17 Médios Nublado 13 22 -
56 1:30.665 17 Médios Nublado 13 22 -
57 1:30.997 16 Médios Nublado 13 22 -


Riscos usados:
Ultrapassagem Defesa Pista Livre e Seca Pista Livre e Chuva Avaria
40 20 0 0 0

Afinação usada:
Asa Dianteira Asa Traseira Motor Travões Caixa Suspensão
130 302 558 590 450 439

Cha Mot ADiant ATras Carroç Later Refrig Caixa Trav Susp Elec
Nível das peças: 6 6 6 6 6 6 6 6 6 6 5
Desgaste das Peças (no início) (%): 12 8 13 16 34 9 12 12 34 23 78
Desgaste das Peças (no final) (%): 28 49 32 31 49 27 33 30 55 44 88

Combustível inicíal (litros): 120

Pit Razão da paragem Estado pneus (%) Combust. restante (%) Reabast. até (litros) Tempo da paragem (seg)
Paragem 1 (Volta 28): Não havia mais combustível 27 1 126 litros 27.436
avatar
Gabriel Miranda

Mensagens : 913
Data de inscrição : 29/12/2014
Idade : 44

Ver perfil do usuário

Voltar ao Topo Ir em baixo

Re: Race Analysis

Mensagem por Conteúdo patrocinado


Conteúdo patrocinado


Voltar ao Topo Ir em baixo

Ver o tópico anterior Ver o tópico seguinte Voltar ao Topo

- Tópicos similares

 :: S58

 
Permissão deste fórum:
Você não pode responder aos tópicos neste fórum